Weather History for Americus, GA

Change the Weather History Date:

Thursday, November 15, 2012

  Actual Average (KABY) Record (KABY)
Temperature  
Mean Temperature 45 °F 59 °F  
Max Temperature 46 °F 72 °F 86 °F (2011)
Min Temperature 44 °F 46 °F 18 °F (1969)
Degree Days  
Heating Degree Days 20 7  
Month to date heating degree days 82  
Since 1 July heating degree days 132  
Cooling Degree Days 0 1  
Month to date cooling degree days 21  
Year to date cooling degree days 2524  
Moisture  
Dew Point 45 °F    
Average Humidity 97    
Maximum Humidity 100    
Minimum Humidity 93    
Precipitation  
Precipitation 0.00 in - 2.16 in (2006)
Sea Level Pressure  
Sea Level Pressure 30.26 in    
Wind  
Wind Speed 7 mph ()    
Max Wind Speed 10 mph    
Max Gust Speed -    
Visibility 6.6 miles    
Events Rain    
T = Trace of Precipitation, MM = Missing Value Source: Averaged Metar Reports

Daily Weather History Graph

Daily Weather History Graph

Search for Another Location

Airport:

Trip Planner

Search our weather history database for the weather conditions in past years. The results will help you decide how hot, cold, wet, or windy it might be!

Date:

Astronomy

Nov. 15, 2012 Rise Set
Actual Time 7:06 AM EST 5:36 PM EST
Civil Twilight 6:40 AM EST 6:02 PM EST
Nautical Twilight 6:10 AM EST 6:32 PM EST
Astronomical Twilight 5:41 AM EST 7:01 PM EST
Moon 8:56 AM EST (11/15) 7:30 PM EST (11/15)
Length of Visible Light 11h 22m
Length of Day
10h 30m
Waxing Crescent, 5% of the Moon is Illuminated
Nov 15
Waxing Crescent
Nov 20
First Quarter
Nov 28
Full
Dec 6
Last Quarter
Dec 13
New

Hourly Weather History & Observations

Time (EST) Temp. Windchill Dew Point Humidity Pressure Visibility Wind Dir Wind Speed Gust Speed Precip Events Conditions
12:15 AM 46.4 °F 42.4 °F 46.4 °F 100% 30.27 in 7.0 mi ENE 8.1 mph - N/A   Overcast
12:35 AM 46.4 °F 42.9 °F 46.4 °F 100% 30.26 in 7.0 mi ENE 6.9 mph - N/A   Overcast
12:55 AM 46.4 °F 42.4 °F 46.4 °F 100% 30.25 in 7.0 mi ENE 8.1 mph - N/A   Overcast
1:15 AM 46.4 °F 41.9 °F 46.4 °F 100% 30.25 in 7.0 mi NE 9.2 mph - N/A   Overcast
1:55 AM 46.4 °F 42.9 °F 46.4 °F 100% 30.25 in 5.0 mi NE 6.9 mph - N/A   Overcast
2:15 AM 44.6 °F 39.7 °F 44.6 °F 100% 30.25 in 7.0 mi NE 9.2 mph - N/A   Overcast
2:35 AM 44.6 °F 40.2 °F 44.6 °F 100% 30.25 in 7.0 mi ENE 8.1 mph - N/A   Overcast
2:55 AM 44.6 °F 39.2 °F 44.6 °F 100% 30.25 in 7.0 mi NE 10.4 mph - N/A   Overcast
3:15 AM 44.6 °F 40.2 °F 44.6 °F 100% 30.24 in 7.0 mi NE 8.1 mph - N/A   Overcast
3:35 AM 44.6 °F 39.7 °F 44.6 °F 100% 30.24 in 5.0 mi NE 9.2 mph - N/A   Overcast
3:55 AM 44.6 °F 40.2 °F 44.6 °F 100% 30.24 in 5.0 mi NNE 8.1 mph - N/A   Overcast
4:15 AM 44.6 °F 40.2 °F 44.6 °F 100% 30.24 in 5.0 mi NE 8.1 mph - N/A   Overcast
4:55 AM 44.6 °F 39.7 °F 44.6 °F 100% 30.25 in 5.0 mi NE 9.2 mph - N/A   Overcast
5:15 AM 44.6 °F 40.2 °F 44.6 °F 100% 30.25 in 5.0 mi NNE 8.1 mph - N/A   Overcast
5:35 AM 44.6 °F 39.2 °F 44.6 °F 100% 30.25 in 5.0 mi NE 10.4 mph - N/A   Overcast
5:55 AM 44.6 °F 39.7 °F 44.6 °F 100% 30.25 in 5.0 mi NE 9.2 mph - N/A   Overcast
6:15 AM 44.6 °F 40.7 °F 44.6 °F 100% 30.26 in 5.0 mi NE 6.9 mph - N/A   Overcast
6:35 AM 44.6 °F 39.2 °F 44.6 °F 100% 30.26 in 3.0 mi NE 10.4 mph - N/A Rain Light Rain
6:55 AM 44.6 °F 40.7 °F 44.6 °F 100% 30.26 in 3.0 mi NE 6.9 mph - N/A Rain Light Rain
7:15 AM 44.6 °F 40.7 °F 44.6 °F 100% 30.27 in 2.5 mi NE 6.9 mph - N/A   Overcast
7:35 AM 44.6 °F 39.7 °F 44.6 °F 100% 30.28 in 4.0 mi NE 9.2 mph - N/A   Overcast
7:55 AM 44.6 °F 40.2 °F 44.6 °F 100% 30.28 in 3.0 mi NNE 8.1 mph - N/A   Overcast
8:15 AM 44.6 °F 39.7 °F 44.6 °F 100% 30.29 in 3.0 mi NNE 9.2 mph - N/A   Overcast
8:35 AM 44.6 °F 39.7 °F 44.6 °F 100% 30.29 in 3.0 mi NNE 9.2 mph - N/A   Overcast
8:55 AM 44.6 °F 39.2 °F 44.6 °F 100% 30.30 in 2.5 mi NNE 10.4 mph - N/A   Overcast
9:15 AM 44.6 °F 39.2 °F 44.6 °F 100% 30.29 in 3.0 mi NE 10.4 mph - N/A   Overcast
9:35 AM 44.6 °F 39.7 °F 44.6 °F 100% 30.30 in 5.0 mi NE 9.2 mph - N/A   Overcast
9:55 AM 44.6 °F 39.7 °F 44.6 °F 100% 30.30 in 7.0 mi NE 9.2 mph - N/A   Overcast
10:15 AM 44.6 °F 39.2 °F 44.6 °F 100% 30.31 in 7.0 mi NNE 10.4 mph - N/A   Overcast
10:35 AM 44.6 °F 40.2 °F 44.6 °F 100% 30.30 in 7.0 mi NE 8.1 mph - N/A   Overcast
10:55 AM 44.6 °F 41.4 °F 44.6 °F 100% 30.30 in 5.0 mi NNE 5.8 mph - N/A   Overcast
11:15 AM 46.4 °F 42.9 °F 44.6 °F 93% 30.29 in 10.0 mi NNE 6.9 mph - N/A   Overcast
11:35 AM 46.4 °F 42.9 °F 44.6 °F 93% 30.28 in 10.0 mi North 6.9 mph - N/A   Overcast
11:55 AM 46.4 °F 42.9 °F 44.6 °F 93% 30.28 in 10.0 mi North 6.9 mph - N/A   Overcast
12:15 PM 46.4 °F 42.9 °F 44.6 °F 93% 30.27 in 10.0 mi NNE 6.9 mph - N/A   Overcast
12:35 PM 46.4 °F 42.4 °F 44.6 °F 93% 30.26 in 10.0 mi NE 8.1 mph - N/A   Overcast
12:55 PM 46.4 °F 42.9 °F 44.6 °F 93% 30.25 in 10.0 mi NNE 6.9 mph - N/A   Overcast
1:15 PM 46.4 °F 42.9 °F 44.6 °F 93% 30.25 in 10.0 mi NNE 6.9 mph - N/A   Overcast
1:35 PM 46.4 °F 42.9 °F 44.6 °F 93% 30.25 in 10.0 mi NNE 6.9 mph - N/A   Overcast
1:55 PM 46.4 °F 42.4 °F 44.6 °F 93% 30.24 in 10.0 mi NNE 8.1 mph - N/A   Overcast
2:15 PM 46.4 °F 42.4 °F 44.6 °F 93% 30.24 in 10.0 mi NNE 8.1 mph - N/A   Overcast
2:35 PM 46.4 °F 42.9 °F 44.6 °F 93% 30.24 in 10.0 mi NNE 6.9 mph - N/A   Overcast
2:55 PM 46.4 °F 42.9 °F 44.6 °F 93% 30.24 in 10.0 mi North 6.9 mph - N/A   Overcast
3:15 PM 46.4 °F 42.9 °F 44.6 °F 93% 30.24 in 10.0 mi North 6.9 mph - N/A   Overcast
3:35 PM 46.4 °F 43.5 °F 44.6 °F 93% 30.24 in 10.0 mi North 5.8 mph - N/A   Overcast
3:55 PM 46.4 °F 42.9 °F 44.6 °F 93% 30.24 in 10.0 mi NNE 6.9 mph - N/A   Overcast
4:15 PM 46.4 °F 44.3 °F 44.6 °F 93% 30.25 in 10.0 mi NNE 4.6 mph - N/A   Overcast
4:35 PM 46.4 °F 43.5 °F 44.6 °F 93% 30.24 in 10.0 mi NNE 5.8 mph - N/A   Overcast
4:55 PM 46.4 °F 44.3 °F 44.6 °F 93% 30.24 in 10.0 mi NNE 4.6 mph - N/A   Overcast
5:15 PM 46.4 °F 42.9 °F 44.6 °F 93% 30.24 in 10.0 mi NNE 6.9 mph - N/A   Overcast
5:35 PM 46.4 °F 42.4 °F 44.6 °F 93% 30.24 in 7.0 mi NE 8.1 mph - N/A   Overcast
5:55 PM 46.4 °F 43.5 °F 44.6 °F 93% 30.24 in 10.0 mi NNE 5.8 mph - N/A   Overcast
6:15 PM 46.4 °F 43.5 °F 44.6 °F 93% 30.25 in 7.0 mi NNE 5.8 mph - N/A   Overcast
6:35 PM 46.4 °F 43.5 °F 44.6 °F 93% 30.26 in 7.0 mi NNE 5.8 mph - N/A   Overcast
6:55 PM 46.4 °F 42.9 °F 44.6 °F 93% 30.26 in 7.0 mi NNE 6.9 mph - N/A   Overcast
7:15 PM 46.4 °F 43.5 °F 44.6 °F 93% 30.25 in 5.0 mi NNE 5.8 mph - N/A   Overcast
7:35 PM 46.4 °F 44.3 °F 44.6 °F 93% 30.27 in 7.0 mi North 4.6 mph - N/A   Overcast
7:55 PM 46.4 °F 44.3 °F 44.6 °F 93% 30.27 in 7.0 mi NNE 4.6 mph - N/A   Overcast
8:15 PM 44.6 °F 42.2 °F 44.6 °F 100% 30.27 in 7.0 mi NNE 4.6 mph - N/A   Overcast
8:35 PM 44.6 °F 40.7 °F 44.6 °F 100% 30.27 in 7.0 mi NE 6.9 mph - N/A   Overcast
8:55 PM 44.6 °F 40.7 °F 44.6 °F 100% 30.28 in 7.0 mi NE 6.9 mph - N/A   Overcast
9:15 PM 44.6 °F 40.2 °F 44.6 °F 100% 30.28 in 7.0 mi NNE 8.1 mph - N/A   Overcast
9:35 PM 44.6 °F 40.7 °F 44.6 °F 100% 30.28 in 3.0 mi NE 6.9 mph - N/A   Overcast
9:55 PM 44.6 °F 41.4 °F 44.6 °F 100% 30.28 in 2.5 mi NE 5.8 mph - N/A   Overcast
10:15 PM 44.6 °F 41.4 °F 44.6 °F 100% 30.28 in 2.5 mi ENE 5.8 mph - N/A   Overcast
10:35 PM 44.6 °F 42.2 °F 44.6 °F 100% 30.28 in 4.0 mi NE 4.6 mph - N/A   Overcast
10:55 PM 44.6 °F 41.4 °F 44.6 °F 100% 30.28 in 4.0 mi NE 5.8 mph - N/A   Overcast
11:15 PM 44.6 °F 42.2 °F 44.6 °F 100% 30.27 in 5.0 mi NE 4.6 mph - N/A   Overcast
11:35 PM 44.6 °F 42.2 °F 44.6 °F 100% 30.28 in 5.0 mi NE 4.6 mph - N/A   Overcast
11:55 PM 44.6 °F 41.4 °F 44.6 °F 100% 30.27 in 4.0 mi NE 5.8 mph - N/A   Overcast